Weather History for KIML - May, 2013

Change the Weather History Date:

Monday, May 20, 2013

  Actual Average Record
Temperature  
Mean Temperature 56 °F 62 °F  
Max Temperature 63 °F 75 °F 100 °F (1934)
Min Temperature 49 °F 48 °F 21 °F (1931)
Degree Days  
Heating Degree Days 9 5  
Month to date heating degree days 181 160  
Cooling Degree Days 0 2  
Month to date cooling degree days 40 18  
Year to date cooling degree days 42 19  
Growing Degree Days 6 (Base 50)    
Moisture  
Dew Point 46 °F    
Average Humidity 72    
Maximum Humidity 93    
Minimum Humidity 51    
Precipitation  
Precipitation 0.03 in 0.09 in 1.95 in (1951)
Sea Level Pressure  
Sea Level Pressure 29.77 in    
Wind  
Wind Speed 20 mph (WNW)    
Max Wind Speed 37 mph    
Max Gust Speed 48 mph    
Visibility 10 miles    
Events Rain    
T = Trace of Precipitation, MM = Missing Value Source: NWS Daily Summary

Daily Weather History Graph

Daily Weather History Graph

Search for Another Location

Airport or City:

Trip Planner

Search our weather history database for the weather conditions in past years. The results will help you decide how hot, cold, wet, or windy it might be!

Date:

Astronomy

May. 20, 2013 Rise Set
Actual Time 5:25 AM MDT 8:01 PM MDT
Civil Twilight 4:53 AM MDT 8:32 PM MDT
Nautical Twilight 4:14 AM MDT 9:12 PM MDT
Astronomical Twilight 3:30 AM MDT 9:56 PM MDT
Moon 3:09 PM MDT (5/20) 2:22 AM MDT (5/20)
Length of Visible Light 15h 38m
Length of Day
14h 35m
Waxing Gibbous, 75% of the Moon is Illuminated
May 20
Waxing Gibbous
May 24
Full
May 31
Last Quarter
Jun 8
New
Jun 16
First Quarter

Hourly Weather History & Observations

Time (MDT) Temp. Dew Point Humidity Pressure Visibility Wind Dir Wind Speed Gust Speed Precip Events Conditions
12:53 AM 54.0 °F 50.0 °F 86% 29.73 in 10.0 mi WNW 6.9 mph - N/A   Overcast
1:53 AM 53.6 °F 50.0 °F 88% 29.75 in 10.0 mi West 10.4 mph - N/A Rain Light Rain
2:53 AM 53.1 °F 51.1 °F 93% 29.73 in 10.0 mi West 12.7 mph - 0.00 in Rain Light Rain
3:01 AM 53.6 °F 51.8 °F 94% 29.75 in 10.0 mi West 11.5 mph - 0.00 in Rain Light Rain
3:13 AM 53.6 °F 51.8 °F 94% 29.75 in 10.0 mi West 11.5 mph - 0.00 in Rain Light Rain
3:53 AM 53.1 °F 51.1 °F 93% 29.73 in 10.0 mi WNW 13.8 mph - 0.01 in Rain Light Rain
4:53 AM 53.6 °F 48.2 °F 82% 29.77 in 10.0 mi WNW 13.8 mph - N/A   Overcast
5:53 AM 51.8 °F 48.2 °F 88% 29.77 in 10.0 mi West 9.2 mph - N/A   Partly Cloudy
6:53 AM 54.0 °F 48.0 °F 80% 29.75 in 10.0 mi West 15.0 mph - N/A   Clear
7:53 AM 57.2 °F 46.4 °F 67% 29.77 in 10.0 mi West 20.7 mph 27.6 mph N/A   Clear
8:53 AM 59.0 °F 46.9 °F 64% 29.74 in 10.0 mi WNW 25.3 mph 34.5 mph N/A   Partly Cloudy
9:53 AM 60.1 °F 43.0 °F 53% 29.74 in 10.0 mi NW 20.7 mph 36.8 mph N/A   Overcast
10:53 AM 59.0 °F 43.0 °F 55% 29.75 in 10.0 mi WNW 23.0 mph 36.8 mph N/A   Overcast
11:53 AM 62.6 °F 44.6 °F 52% 29.77 in 10.0 mi NW 29.9 mph 38.0 mph N/A   Overcast
12:53 PM 57.0 °F 46.0 °F 67% 29.75 in 10.0 mi WNW 23.0 mph 34.5 mph 0.00 in Rain Light Rain
1:53 PM 59.0 °F 43.0 °F 55% 29.76 in 10.0 mi NW 33.4 mph 43.7 mph 0.00 in   Mostly Cloudy
2:53 PM 55.9 °F 45.0 °F 67% 29.77 in 10.0 mi WNW 23.0 mph 43.7 mph N/A   Overcast
3:53 PM 55.9 °F 44.1 °F 64% 29.77 in 10.0 mi NW 24.2 mph 41.4 mph N/A   Mostly Cloudy
4:53 PM 55.0 °F 45.0 °F 69% 29.78 in 10.0 mi NW 25.3 mph 35.7 mph 0.01 in   Overcast
5:53 PM 55.9 °F 45.0 °F 67% 29.79 in 10.0 mi NW 27.6 mph 38.0 mph N/A   Overcast
6:53 PM 55.0 °F 44.1 °F 67% 29.80 in 10.0 mi NW 23.0 mph 34.5 mph N/A   Overcast
7:53 PM 53.6 °F 44.6 °F 72% 29.84 in 10.0 mi NW 19.6 mph 31.1 mph N/A   Overcast
8:53 PM 53.1 °F 45.0 °F 74% 29.82 in 10.0 mi NW 18.4 mph 24.2 mph N/A   Overcast
9:53 PM 52.0 °F 44.1 °F 74% 29.83 in 10.0 mi WNW 15.0 mph - N/A   Mostly Cloudy
10:53 PM 51.1 °F 42.1 °F 71% 29.84 in 10.0 mi NW 19.6 mph - N/A   Partly Cloudy
11:53 PM 48.9 °F 42.1 °F 77% 29.85 in 10.0 mi WNW 11.5 mph - N/A   Clear